Hourly Data Report for August 23, 2019

TORONTO CITY
ONTARIO
Current Station Operator: ECCC - MSC

43°40'00.000" N
79°24'00.000" W
112.50 m
6158355
71508
XTO

Download Data

Hourly Data (August 2019)
Hourly Data Report for August 23, 2019
TIME
LST
Temp Definition
°C
Dew Point Definition
°C
Rel Hum Definition
%
Precip. Amount Definition
mm

Wind Dir Definition
10's deg

Wind Spd Definition
km/h
Visibility Definition
km
Stn Press Definition
kPa
Hmdx Definition


Wind Chill Definition


Weather Definition


00:00 17.3 10.1 63 0.0       100.31     LegendNANA
01:00 16.7 10.0 64 0.0       100.36     LegendNANA
02:00 16.3 10.3 68 0.0       100.35     LegendNANA
03:00 15.6 10.1 69 0.0       100.37     LegendNANA
04:00 15.5 10.1 70 0.0       100.44     LegendNANA
05:00 14.9 10.3 74 0.0       100.47     LegendNANA
06:00 15.0 10.4 74 0.0       100.54     LegendNANA
07:00 16.5 11.0 70 0.0       100.57     LegendNANA
08:00 17.7 10.9 64 0.0       100.62     LegendNANA
09:00 19.0 9.7 55 0.0       100.67     LegendNANA
10:00 20.4 8.9 48 0.0       100.69     LegendNANA
11:00 20.5 9.0 47 0.0       100.68     LegendNANA
12:00 21.6 7.3 40 0.0       100.68     LegendNANA
13:00 21.5 6.8 39 0.0       100.67     LegendNANA
14:00 21.8 5.4 34 0.0       100.67     LegendNANA
15:00 21.7 5.0 34 0.0       100.67     LegendNANA
16:00 21.7 3.8 31 0.0       100.65     LegendNANA
17:00 21.8 4.6 32 0.0       100.66     LegendNANA
18:00 20.7 7.0 41 0.0       100.69     LegendNANA
19:00 19.5 7.4 45 0.0       100.74     LegendNANA
20:00 18.6 8.5 52 0.0       100.80     LegendNANA
21:00 17.7 8.8 56 0.0       100.85     LegendNANA
22:00 17.1 9.0 59 0.0       100.87     LegendNANA
23:00 16.6 9.1 61 0.0       100.92     LegendNANA

Notes on Data Quality.

Legend

  • E = Estimated
  • M = Missing
  • NA = Not Available*
  • [empty] = Indicates an unobserved value
Date modified: